Погода в Чунском

Россия / Иркутская область     56°05′09″N   99°39′55″E
темп.,
°C
ветер,
м/с
пор.,
м/с
влажн.,
%
обл.,
%
осадки,
мм/ч
давл.,
гПа
погр.,
м
30 июня, чт
чт3023:00+16вюв116315 0.0 100611
02:00+14юв22760 0.0 100624
05:00+12вюв11850 0.0 100513
08:00+19юв48650 0.0 1004458
11:00+25юв46440 0.0 10021316
14:00+30юв44305 0.0 10012119
17:00+31ююв33254 0.0 9992624
20:00+28вюв373928 0.0 999217
1 июля, пт
пт123:00+20юв312605 0.0 1000272
02:00+17в226966 0.0 100038
05:00+15вюв118257 0.0 100211
08:00+19з226764 0.0 1002392
11:00+25юз2350100 0.0 10011016
14:00+28зюз344286 0.0 10001764
17:00+21зсз71067100 0.0 1002548
20:00+17сз3785100 0.6 1003487
2 июля, сб
сб223:00+15зсз269671 0.8 1004245
02:00+14зсз269988 0.9 1004203
05:00+13зюз1298100 0.1 100565
08:00+14зсз1398100 3.1 1005184
11:00+18зсз237584 0.7 1005822
14:00+21зсз3354100 0.8 10041263
17:00+23зсз2449100 0.0 10041614
20:00+18зсз2579100 0.9 1005213
3 июля, вс
вс323:00+14з228691 0.0 100616
02:00+12зюз2390100 0.0 100758
05:00+13зюз2593100 0.2 1008165
08:00+13зюз2595100 0.6 1009213
11:00+17з24749 0.2 1008668
14:00+22з344593 0.6 10072047
17:00+22ссв134284 0.0 10071674
20:00+21сз115424 0.0 100776
4 июля, пн
пн423:00+14сз0071100 0.0 100811
02:00+11ссз118136 0.0 100810
05:00+10сз118597 0.0 100810
08:00+15сз116493 0.0 1007234
11:00+22сз124319 0.0 10061609
14:00+24зсз1234100 0.0 10042524
17:00+21вюв2351100 0.0 1004264
20:00+21вюв235552 0.0 1003127